Keahole Point, HI

9:22 PM HST on December 11, 2017 (GMT -1000)
Kona International At Keahole

Weather History for PHKO - July, 2013

Change the Weather History Date:

Tuesday, July 30, 2013

  Actual Average Record
Temperature  
Mean Temperature 82 °F -  
Max Temperature 88 °F 83 °F 92 °F (1982)
Min Temperature 77 °F 73 °F 70 °F (1992)
Cooling Degree Days 18    
Growing Degree Days 32 (Base 50)    
Moisture  
Dew Point 72 °F    
Average Humidity 72    
Maximum Humidity 84    
Minimum Humidity 56    
Precipitation  
Precipitation 0.00 in - - ()
Sea Level Pressure  
Sea Level Pressure 30.00 in    
Wind  
Wind Speed 13 mph (SSW)    
Max Wind Speed 22 mph    
Max Gust Speed 25 mph    
Visibility 10 miles    
Events      
Averages and records for this station are not official NWS values.
T = Trace of Precipitation, MM = Missing Value Source: NWS Daily Summary

Daily Weather History Graph

Daily Weather History Graph

Search for Another Location

Airport or City:

Trip Planner

Search our weather history database for the weather conditions in past years. The results will help you decide how hot, cold, wet, or windy it might be!

Date:

Astronomy

Jul. 30, 2013 Rise Set
Actual Time 5:59 AM HST 7:01 PM HST
Civil Twilight 5:36 AM HST 7:24 PM HST
Nautical Twilight 5:08 AM HST 7:52 PM HST
Astronomical Twilight 4:39 AM HST 8:21 PM HST
Moon 12:19 AM HST (7/30) 1:33 PM HST (7/30)
Length of Visible Light 13h 48m
Length of Day
13h 01m
Last Quarter, 39% of the Moon is Illuminated
Jul 30
Last Quarter
Aug 6
New
Aug 14
First Quarter
Aug 20
Full
Aug 27
Last Quarter

Hourly Weather History & Observations

Time (HST) Temp. Heat Index Dew Point Humidity Pressure Visibility Wind Dir Wind Speed Gust Speed Precip Events Conditions
12:53 AM 77.0 °F - 72.0 °F 84% 29.94 in 10.0 mi North 21.9 mph - N/A   Clear
1:53 AM 78.1 °F - 72.0 °F 81% 29.94 in 10.0 mi North 21.9 mph - N/A   Partly Cloudy
2:53 AM 77.0 °F - 71.1 °F 82% 29.94 in 10.0 mi North 16.1 mph - N/A   Clear
3:53 AM 77.0 °F - 71.1 °F 82% 29.92 in 10.0 mi North 17.3 mph - N/A   Clear
4:53 AM 77.0 °F - 70.0 °F 79% 29.94 in 10.0 mi NNE 3.5 mph - 0.00 in   Clear
5:53 AM 77.0 °F - 69.1 °F 76% 29.96 in 10.0 mi SE 9.2 mph - N/A   Clear
6:53 AM 78.1 °F - 68.0 °F 71% 29.98 in 10.0 mi SE 10.4 mph - N/A   Clear
7:53 AM 84.0 °F 86.5 °F 66.9 °F 56% 29.99 in 10.0 mi SSE 15.0 mph - N/A   Clear
8:53 AM 84.0 °F 89.6 °F 72.0 °F 67% 30.00 in 10.0 mi South 19.6 mph - N/A   Clear
9:53 AM 86.0 °F 93.0 °F 73.0 °F 65% 30.01 in 10.0 mi South 18.4 mph 25.3 mph N/A   Clear
10:53 AM 84.0 °F 91.2 °F 73.9 °F 72% 30.01 in 10.0 mi South 16.1 mph - N/A   Clear
11:53 AM 88.0 °F 93.8 °F 71.1 °F 57% 30.01 in 10.0 mi South 10.4 mph - N/A   Clear
12:45 PM 84.2 °F 89.6 °F 71.6 °F 66% 30.00 in 10.0 mi South 10.4 mph - N/A   Scattered Clouds
12:53 PM 86.0 °F 92.2 °F 72.0 °F 63% 30.01 in 10.0 mi SSW 9.2 mph - N/A   Scattered Clouds
12:57 PM 86.0 °F 91.8 °F 71.6 °F 62% 30.00 in 10.0 mi SSW 10.4 mph - N/A   Mostly Cloudy
1:17 PM 86.0 °F 91.8 °F 71.6 °F 62% 30.00 in 10.0 mi SSW 9.2 mph - N/A   Partly Cloudy
1:53 PM 86.0 °F 92.2 °F 72.0 °F 63% 30.00 in 10.0 mi South 11.5 mph - N/A   Partly Cloudy
2:53 PM 86.0 °F 92.2 °F 72.0 °F 63% 30.00 in 10.0 mi SW 11.5 mph - N/A   Partly Cloudy
3:53 PM 86.0 °F 93.0 °F 73.0 °F 65% 30.00 in 10.0 mi SW 11.5 mph - N/A   Partly Cloudy
4:00 PM 86.0 °F 93.4 °F 73.4 °F 66% 29.99 in 10.0 mi WSW 10.4 mph - N/A   Overcast
4:09 PM 86.0 °F 93.4 °F 73.4 °F 66% 30.00 in 10.0 mi SW 9.2 mph - N/A   Mostly Cloudy
4:53 PM 82.9 °F 88.8 °F 73.0 °F 72% 30.00 in 10.0 mi WSW 5.8 mph - N/A   Mostly Cloudy
5:00 PM 82.4 °F 88.2 °F 73.4 °F 74% 29.99 in 10.0 mi SW 5.8 mph - N/A   Mostly Cloudy
5:53 PM 82.0 °F 86.7 °F 72.0 °F 71% 30.00 in 10.0 mi Variable 4.6 mph - N/A   Mostly Cloudy
6:53 PM 81.0 °F 85.2 °F 72.0 °F 74% 30.02 in 10.0 mi Calm Calm - N/A   Mostly Cloudy
7:00 PM 80.6 °F 84.6 °F 71.6 °F 74% 30.02 in 10.0 mi Calm Calm - N/A   Overcast
7:53 PM 81.0 °F 85.8 °F 73.0 °F 77% 30.03 in 10.0 mi Calm Calm - N/A   Overcast
8:53 PM 81.0 °F 85.8 °F 73.0 °F 77% 30.05 in 10.0 mi Calm Calm - N/A   Overcast
9:46 PM 80.6 °F 85.4 °F 73.4 °F 79% 30.06 in 10.0 mi SW 3.5 mph - N/A   Overcast
9:53 PM 81.0 °F 85.8 °F 73.0 °F 77% 30.06 in 10.0 mi South 3.5 mph - N/A   Overcast
10:53 PM 80.1 °F 84.2 °F 73.0 °F 79% 30.06 in 10.0 mi South 5.8 mph - N/A   Overcast
11:05 PM 80.6 °F 85.4 °F 73.4 °F 79% 30.06 in 10.0 mi South 5.8 mph - N/A   Overcast
11:53 PM 80.1 °F 84.2 °F 73.0 °F 79% 30.05 in 10.0 mi SSE 8.1 mph - N/A   Overcast